Location: Azul
(36.7830°S, 59.8500°W)
Time: 11:35:01
(UTC-03:00)

BEESAT 3 - Pass Details

Date: 25 October 2021
Orbit: 477 x 511 km, 64.9° (Epoch: 28 November)

Event Time Altitude Azimuth Distance (km) Brightness Sun altitude
Rises 04:42:40 0° 212° (SSW) 2,571 ? -15.5°
Reaches altitude 10° 04:44:50 10° 214° (SW) 1,681 ? -15.1°
Maximum altitude 04:48:34 73° 297° (WNW) 511 ? -14.5°
Drops below altitude 10° 04:52:15 10° 23° (NNE) 1,655 ? -13.8°
Sets 04:54:22 0° 24° (NNE) 2,527 ? -13.4°
